Year,Month,Day,Hour,Minute,Value (Times are PST for windspeed in km/hr)
2009,06,25,00,00,0.90
2009,06,25,00,01,3.40
2009,06,25,00,02,3.60
2009,06,25,00,03,4.50
2009,06,25,00,04,1.60
2009,06,25,00,05,3.80
2009,06,25,00,06,5.00
2009,06,25,00,07,2.30
2009,06,25,00,08,0.70
2009,06,25,00,09,1.10
2009,06,25,00,10,0.60
2009,06,25,00,11,1.90
2009,06,25,00,12,0.50
2009,06,25,00,13,0.60
2009,06,25,00,14,3.70
2009,06,25,00,15,1.90
2009,06,25,00,16,1.90
2009,06,25,00,17,0.90
2009,06,25,00,18,0.10
2009,06,25,00,19,0.50
2009,06,25,00,20,0.00
2009,06,25,00,21,0.00
2009,06,25,00,22,0.10
2009,06,25,00,23,0.00
2009,06,25,00,24,1.00
2009,06,25,00,25,1.40
2009,06,25,00,26,0.10
2009,06,25,00,27,0.80
2009,06,25,00,28,0.80
2009,06,25,00,29,1.80
2009,06,25,00,30,1.40
2009,06,25,00,31,2.30
2009,06,25,00,32,2.80
2009,06,25,00,33,4.00
2009,06,25,00,34,3.50
2009,06,25,00,35,0.20
2009,06,25,00,36,0.30
2009,06,25,00,37,0.00
2009,06,25,00,38,0.00
2009,06,25,00,39,0.00
2009,06,25,00,40,0.00
2009,06,25,00,41,0.00
2009,06,25,00,42,0.40
2009,06,25,00,43,0.70
2009,06,25,00,44,0.10
2009,06,25,00,45,0.00
2009,06,25,00,46,0.00
2009,06,25,00,47,0.00
2009,06,25,00,48,0.00
2009,06,25,00,49,0.00
2009,06,25,00,50,0.00
2009,06,25,00,51,0.00
2009,06,25,00,52,0.00
2009,06,25,00,53,0.00
2009,06,25,00,54,0.00
2009,06,25,00,55,0.00
2009,06,25,00,56,0.00
2009,06,25,00,57,0.00
2009,06,25,00,58,0.00
2009,06,25,00,59,0.00
2009,06,25,01,00,0.00
2009,06,25,01,01,0.00
2009,06,25,01,02,0.40
2009,06,25,01,03,0.30
2009,06,25,01,04,0.70
2009,06,25,01,05,1.00
2009,06,25,01,06,1.60
2009,06,25,01,07,1.00
2009,06,25,01,08,0.30
2009,06,25,01,09,0.00
2009,06,25,01,10,0.00
2009,06,25,01,11,0.10
2009,06,25,01,12,0.30
2009,06,25,01,13,0.10
2009,06,25,01,14,0.10
2009,06,25,01,15,0.70
2009,06,25,01,16,2.00
2009,06,25,01,17,0.30
2009,06,25,01,18,0.00
2009,06,25,01,19,0.00
2009,06,25,01,20,0.00
2009,06,25,01,21,0.00
2009,06,25,01,22,0.70
2009,06,25,01,23,0.00
2009,06,25,01,24,0.00
2009,06,25,01,25,0.10
2009,06,25,01,26,0.30
2009,06,25,01,27,0.60
2009,06,25,01,28,2.70
2009,06,25,01,29,2.80
2009,06,25,01,30,0.00
2009,06,25,01,31,0.00
2009,06,25,01,32,0.10
2009,06,25,01,33,0.00
2009,06,25,01,34,0.00
2009,06,25,01,35,0.00
2009,06,25,01,36,0.00
2009,06,25,01,37,1.20
2009,06,25,01,38,1.90
2009,06,25,01,39,1.00
2009,06,25,01,40,2.50
2009,06,25,01,41,2.40
2009,06,25,01,42,1.70
2009,06,25,01,43,1.00
2009,06,25,01,44,0.40
2009,06,25,01,45,0.00
2009,06,25,01,46,0.00
2009,06,25,01,47,0.10
2009,06,25,01,48,0.00
2009,06,25,01,49,0.10
2009,06,25,01,50,1.70
2009,06,25,01,51,1.20
2009,06,25,01,52,0.40
2009,06,25,01,53,0.00
2009,06,25,01,54,0.60
2009,06,25,01,55,0.20
2009,06,25,01,56,1.00
2009,06,25,01,57,0.20
2009,06,25,01,58,0.70
2009,06,25,01,59,0.60
2009,06,25,02,00,0.00
2009,06,25,02,01,0.80
2009,06,25,02,02,1.50
2009,06,25,02,03,0.70
2009,06,25,02,04,0.20
2009,06,25,02,05,0.00
2009,06,25,02,06,0.00
2009,06,25,02,07,0.20
2009,06,25,02,08,1.10
2009,06,25,02,09,0.00
2009,06,25,02,10,0.10
2009,06,25,02,11,0.60
2009,06,25,02,12,0.00
2009,06,25,02,13,0.00
2009,06,25,02,14,0.00
2009,06,25,02,15,0.00
2009,06,25,02,16,0.30
2009,06,25,02,17,0.90
2009,06,25,02,18,0.60
2009,06,25,02,19,0.00
2009,06,25,02,20,0.00
2009,06,25,02,21,0.00
2009,06,25,02,22,0.00
2009,06,25,02,23,0.00
2009,06,25,02,24,0.00
2009,06,25,02,25,0.00
2009,06,25,02,26,0.00
2009,06,25,02,27,0.00
2009,06,25,02,28,0.00
2009,06,25,02,29,0.00
2009,06,25,02,30,0.00
2009,06,25,02,31,0.00
2009,06,25,02,32,0.00
2009,06,25,02,33,0.20
2009,06,25,02,34,0.40
2009,06,25,02,35,1.50
2009,06,25,02,36,0.30
2009,06,25,02,37,0.00
2009,06,25,02,38,0.00
2009,06,25,02,39,0.00
2009,06,25,02,40,0.20
2009,06,25,02,41,0.00
2009,06,25,02,42,0.10
2009,06,25,02,43,0.80
2009,06,25,02,44,0.00
2009,06,25,02,45,0.00
2009,06,25,02,46,0.00
2009,06,25,02,47,0.00
2009,06,25,02,48,0.00
2009,06,25,02,49,1.80
2009,06,25,02,50,2.30
2009,06,25,02,51,2.50
2009,06,25,02,52,2.10
2009,06,25,02,53,3.10
2009,06,25,02,54,3.40
2009,06,25,02,55,4.00
2009,06,25,02,56,3.60
2009,06,25,02,57,2.90
2009,06,25,02,58,2.60
2009,06,25,02,59,1.30
2009,06,25,03,00,2.10
2009,06,25,03,01,1.70
2009,06,25,03,02,0.10
2009,06,25,03,03,0.00
2009,06,25,03,04,0.00
2009,06,25,03,05,0.00
2009,06,25,03,06,0.00
2009,06,25,03,07,0.60
2009,06,25,03,08,0.30
2009,06,25,03,09,0.20
2009,06,25,03,10,0.80
2009,06,25,03,11,0.00
2009,06,25,03,12,0.00
2009,06,25,03,13,0.60
2009,06,25,03,14,1.50
2009,06,25,03,15,2.10
2009,06,25,03,16,0.70
2009,06,25,03,17,0.00
2009,06,25,03,18,0.00
2009,06,25,03,19,0.00
2009,06,25,03,20,0.00
2009,06,25,03,21,0.00
2009,06,25,03,22,0.00
2009,06,25,03,23,0.80
2009,06,25,03,24,0.90
2009,06,25,03,25,0.00
2009,06,25,03,26,0.10
2009,06,25,03,27,1.20
2009,06,25,03,28,2.30
2009,06,25,03,29,4.10
2009,06,25,03,30,2.40
2009,06,25,03,31,1.90
2009,06,25,03,32,1.60
2009,06,25,03,33,0.00
2009,06,25,03,34,0.00
2009,06,25,03,35,0.00
2009,06,25,03,36,0.10
2009,06,25,03,37,0.00
2009,06,25,03,38,0.00
2009,06,25,03,39,1.00
2009,06,25,03,40,0.50
2009,06,25,03,41,0.40
2009,06,25,03,42,1.50
2009,06,25,03,43,1.00
2009,06,25,03,44,0.00
2009,06,25,03,45,0.00
2009,06,25,03,46,0.20
2009,06,25,03,47,1.70
2009,06,25,03,48,1.00
2009,06,25,03,49,0.10
2009,06,25,03,50,2.30
2009,06,25,03,51,2.20
2009,06,25,03,52,2.30
2009,06,25,03,53,2.70
2009,06,25,03,54,2.90
2009,06,25,03,55,2.10
2009,06,25,03,56,1.20
2009,06,25,03,57,1.00
2009,06,25,03,58,0.00
2009,06,25,03,59,0.00
2009,06,25,04,00,0.00
2009,06,25,04,01,0.00
2009,06,25,04,02,0.00
2009,06,25,04,03,0.00
2009,06,25,04,10,0.00
2009,06,25,04,11,0.00
2009,06,25,04,12,0.00
2009,06,25,04,13,0.00
2009,06,25,04,14,0.00
2009,06,25,04,15,0.00
2009,06,25,04,16,0.00
2009,06,25,04,17,0.00
2009,06,25,04,18,0.00
2009,06,25,04,19,0.00
2009,06,25,04,20,0.10
2009,06,25,04,21,0.40
2009,06,25,04,22,1.20
2009,06,25,04,23,1.10
2009,06,25,04,24,0.20
2009,06,25,04,25,0.20
2009,06,25,04,26,0.00
2009,06,25,04,27,0.00
2009,06,25,04,28,0.10
2009,06,25,04,29,0.30
2009,06,25,04,30,0.40
2009,06,25,04,31,0.10
2009,06,25,04,32,0.90
2009,06,25,04,33,1.20
2009,06,25,04,34,0.70
2009,06,25,04,35,0.90
2009,06,25,04,36,1.40
2009,06,25,04,37,0.00
2009,06,25,04,38,0.20
2009,06,25,04,39,0.00
2009,06,25,04,40,0.00
2009,06,25,04,41,0.00
2009,06,25,04,42,0.00
2009,06,25,04,43,0.00
2009,06,25,04,44,0.00
2009,06,25,04,45,0.70
2009,06,25,04,46,0.10
2009,06,25,04,47,0.00
2009,06,25,04,48,0.00
2009,06,25,04,49,0.40
2009,06,25,04,50,1.10
2009,06,25,04,51,1.40
2009,06,25,04,52,0.50
2009,06,25,04,53,0.00
2009,06,25,04,54,0.00
2009,06,25,04,55,0.00
2009,06,25,04,56,0.00
2009,06,25,04,57,0.00
2009,06,25,04,58,0.00
2009,06,25,04,59,0.00
2009,06,25,05,00,0.00
2009,06,25,05,01,0.00
2009,06,25,05,02,0.00
2009,06,25,05,03,0.00
2009,06,25,05,04,0.80
2009,06,25,05,05,1.10
2009,06,25,05,06,0.90
2009,06,25,05,07,1.00
2009,06,25,05,08,0.30
2009,06,25,05,09,0.20
2009,06,25,05,10,0.00
2009,06,25,05,11,0.90
2009,06,25,05,12,1.60
2009,06,25,05,13,1.00
2009,06,25,05,14,0.20
2009,06,25,05,15,0.40
2009,06,25,05,16,0.00
2009,06,25,05,17,0.00
2009,06,25,05,18,0.00
2009,06,25,05,19,0.00
2009,06,25,05,20,0.00
2009,06,25,05,21,0.10
2009,06,25,05,22,0.00
2009,06,25,05,23,0.00
2009,06,25,05,24,0.00
2009,06,25,05,25,0.00
2009,06,25,05,26,0.30
2009,06,25,05,27,0.30
2009,06,25,05,28,1.40
2009,06,25,05,29,0.30
2009,06,25,05,30,1.30
2009,06,25,05,31,0.00
2009,06,25,05,32,0.00
2009,06,25,05,33,0.00
2009,06,25,05,34,0.00
2009,06,25,05,35,0.10
2009,06,25,05,36,1.40
2009,06,25,05,37,0.10
2009,06,25,05,38,0.40
2009,06,25,05,39,0.00
2009,06,25,05,40,0.00
2009,06,25,05,41,0.00
2009,06,25,05,42,0.00
2009,06,25,05,43,0.00
2009,06,25,05,44,0.00
2009,06,25,05,45,0.40
2009,06,25,05,46,0.10
2009,06,25,05,47,0.40
2009,06,25,05,48,0.20
2009,06,25,05,49,0.00
2009,06,25,05,50,0.10
2009,06,25,05,51,0.20
2009,06,25,05,52,0.00
2009,06,25,05,53,0.50
2009,06,25,05,54,1.10
2009,06,25,05,55,0.30
2009,06,25,05,56,0.00
2009,06,25,05,57,0.00
2009,06,25,05,58,0.00
2009,06,25,05,59,0.00
2009,06,25,06,00,0.00
2009,06,25,06,01,0.00
2009,06,25,06,02,0.00
2009,06,25,06,03,0.00
2009,06,25,06,04,0.00
2009,06,25,06,05,1.00
2009,06,25,06,06,0.60
2009,06,25,06,07,1.40
2009,06,25,06,08,2.00
2009,06,25,06,09,3.40
2009,06,25,06,10,2.20
2009,06,25,06,11,2.10
2009,06,25,06,12,1.70
2009,06,25,06,13,1.50
2009,06,25,06,14,0.50
2009,06,25,06,15,0.00
2009,06,25,06,16,0.50
2009,06,25,06,17,0.20
2009,06,25,06,18,0.00
2009,06,25,06,19,1.00
2009,06,25,06,20,0.20
2009,06,25,06,21,0.00
2009,06,25,06,22,0.70
2009,06,25,06,23,0.70
2009,06,25,06,24,0.00
2009,06,25,06,25,0.20
2009,06,25,06,26,0.10
2009,06,25,06,27,1.10
2009,06,25,06,28,0.10
2009,06,25,06,29,1.70
2009,06,25,06,30,1.60
2009,06,25,06,31,0.70
2009,06,25,06,32,0.10
2009,06,25,06,33,0.00
2009,06,25,06,34,0.00
2009,06,25,06,35,0.00
2009,06,25,06,36,0.30
2009,06,25,06,37,0.00
2009,06,25,06,38,0.50
2009,06,25,06,39,0.00
2009,06,25,06,40,0.00
2009,06,25,06,41,0.00
2009,06,25,06,42,0.00
2009,06,25,06,43,0.00
2009,06,25,06,44,0.00
2009,06,25,06,45,0.00
2009,06,25,06,46,0.00
2009,06,25,06,47,0.00
2009,06,25,06,48,0.00
2009,06,25,06,49,0.00
2009,06,25,06,50,0.00
2009,06,25,06,51,0.00
2009,06,25,06,52,0.50
2009,06,25,06,53,1.50
2009,06,25,06,54,0.50
2009,06,25,06,55,0.40
2009,06,25,06,56,1.10
2009,06,25,06,57,0.00
2009,06,25,06,58,0.00
2009,06,25,06,59,0.00
2009,06,25,07,00,0.00
2009,06,25,07,01,0.00
2009,06,25,07,02,0.00
2009,06,25,07,03,0.00
2009,06,25,07,04,0.00
2009,06,25,07,05,0.00
2009,06,25,07,06,0.00
2009,06,25,07,07,0.00
2009,06,25,07,08,0.00
2009,06,25,07,09,0.00
2009,06,25,07,10,0.00
2009,06,25,07,11,0.00
2009,06,25,07,12,0.00
2009,06,25,07,13,0.60
2009,06,25,07,14,0.70
2009,06,25,07,15,0.40
2009,06,25,07,16,0.00
2009,06,25,07,17,0.10
2009,06,25,07,18,0.00
2009,06,25,07,19,0.00
2009,06,25,07,20,0.00
2009,06,25,07,21,0.00
2009,06,25,07,22,0.00
2009,06,25,07,23,0.00
2009,06,25,07,24,0.00
2009,06,25,07,25,0.00
2009,06,25,07,26,0.00
2009,06,25,07,27,0.00
2009,06,25,07,28,0.00
2009,06,25,07,29,0.00
2009,06,25,07,30,0.00
2009,06,25,07,31,0.00
2009,06,25,07,32,0.00
2009,06,25,07,33,0.00
2009,06,25,07,34,0.00
2009,06,25,07,35,0.00
2009,06,25,07,36,0.00
2009,06,25,07,37,0.00
2009,06,25,07,38,0.00
2009,06,25,07,39,0.30
2009,06,25,07,40,0.00
2009,06,25,07,41,0.00
2009,06,25,07,42,0.00
2009,06,25,07,43,0.00
2009,06,25,07,44,0.00
2009,06,25,07,45,0.00
2009,06,25,07,46,0.00
2009,06,25,07,47,0.00
2009,06,25,07,48,0.00
2009,06,25,07,49,0.00
2009,06,25,07,50,0.00
2009,06,25,07,51,0.10
2009,06,25,07,52,0.00
2009,06,25,07,53,0.00
2009,06,25,07,54,0.00
2009,06,25,07,55,0.00
2009,06,25,07,56,0.00
2009,06,25,07,57,0.00
2009,06,25,07,58,0.00
2009,06,25,07,59,0.00
2009,06,25,08,00,0.00
2009,06,25,08,01,0.00
2009,06,25,08,02,0.00
2009,06,25,08,03,0.90
2009,06,25,08,04,0.20
2009,06,25,08,05,0.00
2009,06,25,08,06,0.00
2009,06,25,08,07,0.70
2009,06,25,08,08,0.00
2009,06,25,08,09,0.00
2009,06,25,08,10,0.00
2009,06,25,08,11,0.00
2009,06,25,08,12,0.00
2009,06,25,08,13,0.00
2009,06,25,08,14,0.00
2009,06,25,08,15,0.00
2009,06,25,08,16,0.90
2009,06,25,08,17,0.40
2009,06,25,08,18,0.00
2009,06,25,08,19,0.40
2009,06,25,08,20,0.00
2009,06,25,08,21,0.00
2009,06,25,08,22,0.00
2009,06,25,08,23,0.40
2009,06,25,08,24,0.60
2009,06,25,08,25,0.00
2009,06,25,08,26,0.70
2009,06,25,08,27,2.80
2009,06,25,08,28,0.70
2009,06,25,08,29,0.40
2009,06,25,08,30,0.00
2009,06,25,08,31,1.10
2009,06,25,08,32,0.40
2009,06,25,08,33,0.40
2009,06,25,08,34,0.00
2009,06,25,08,35,0.00
2009,06,25,08,36,0.00
2009,06,25,08,37,0.00
2009,06,25,08,38,0.10
2009,06,25,08,39,1.30
2009,06,25,08,40,4.00
2009,06,25,08,41,4.40
2009,06,25,08,42,4.20
2009,06,25,08,43,4.30
2009,06,25,08,44,3.00
2009,06,25,08,45,1.80
2009,06,25,08,46,1.30
2009,06,25,08,47,2.70
2009,06,25,08,48,3.00
2009,06,25,08,49,2.60
2009,06,25,08,50,2.20
2009,06,25,08,51,2.90
2009,06,25,08,52,2.60
2009,06,25,08,53,1.40
2009,06,25,08,54,0.50
2009,06,25,08,55,0.70
2009,06,25,08,56,0.20
2009,06,25,08,57,0.00
2009,06,25,08,58,0.00
2009,06,25,08,59,0.00
2009,06,25,09,00,0.00
2009,06,25,09,01,1.30
2009,06,25,09,02,0.70
2009,06,25,09,03,2.60
2009,06,25,09,04,2.50
2009,06,25,09,05,1.10
2009,06,25,09,06,2.60
2009,06,25,09,07,1.70
2009,06,25,09,08,3.60
2009,06,25,09,09,3.50
2009,06,25,09,10,2.50
2009,06,25,09,11,5.50
2009,06,25,09,12,3.20
2009,06,25,09,13,3.00
2009,06,25,09,14,2.10
2009,06,25,09,15,3.40
2009,06,25,09,16,2.60
2009,06,25,09,17,1.80
2009,06,25,09,18,3.80
2009,06,25,09,19,4.30
2009,06,25,09,20,3.70
2009,06,25,09,21,3.70
2009,06,25,09,22,2.10
2009,06,25,09,23,4.30
2009,06,25,09,24,3.60
2009,06,25,09,25,3.60
2009,06,25,09,26,4.00
2009,06,25,09,27,3.40
2009,06,25,09,28,2.40
2009,06,25,09,29,5.00
2009,06,25,09,30,6.80
2009,06,25,09,31,3.30
2009,06,25,09,32,1.70
2009,06,25,09,33,4.30
2009,06,25,09,34,4.80
2009,06,25,09,35,2.40
2009,06,25,09,36,2.40
2009,06,25,09,37,5.90
2009,06,25,09,38,4.80
2009,06,25,09,39,6.10
2009,06,25,09,40,5.60
2009,06,25,09,41,7.40
2009,06,25,09,42,10.20
2009,06,25,09,43,6.30
2009,06,25,09,44,6.80
2009,06,25,09,45,7.80
2009,06,25,09,46,10.10
2009,06,25,09,47,6.70
2009,06,25,09,48,6.80
2009,06,25,09,49,6.50
2009,06,25,09,50,7.70
2009,06,25,09,51,4.30
2009,06,25,09,52,11.30
2009,06,25,09,53,6.30
2009,06,25,09,54,9.20
2009,06,25,09,55,8.60
2009,06,25,09,56,7.30
2009,06,25,09,57,6.20
2009,06,25,09,58,8.40
2009,06,25,09,59,4.40
2009,06,25,10,00,5.30
2009,06,25,10,01,2.30
2009,06,25,10,02,3.80
2009,06,25,10,03,0.10
2009,06,25,10,04,5.10
2009,06,25,10,05,8.40
2009,06,25,10,06,6.90
2009,06,25,10,07,11.80
2009,06,25,10,08,6.50
2009,06,25,10,09,7.80
2009,06,25,10,10,11.70
2009,06,25,10,11,8.60
2009,06,25,10,12,9.00
2009,06,25,10,13,9.90
2009,06,25,10,14,8.80
2009,06,25,10,15,8.80
2009,06,25,10,16,5.60
2009,06,25,10,17,8.00
2009,06,25,10,18,6.30
2009,06,25,10,19,5.40
2009,06,25,10,20,5.10
2009,06,25,10,21,4.80
2009,06,25,10,22,8.10
2009,06,25,10,23,8.10
2009,06,25,10,24,7.60
2009,06,25,10,25,7.00
2009,06,25,10,26,4.70
2009,06,25,10,27,9.20
2009,06,25,10,28,12.50
2009,06,25,10,29,11.30
2009,06,25,10,30,13.30
2009,06,25,10,31,7.20
2009,06,25,10,32,7.80
2009,06,25,10,33,8.20
2009,06,25,10,34,4.60
2009,06,25,10,35,6.40
2009,06,25,10,36,5.50
2009,06,25,10,37,9.30
2009,06,25,10,38,9.90
2009,06,25,10,39,6.30
2009,06,25,10,40,5.10
2009,06,25,10,41,6.10
2009,06,25,10,42,7.30
2009,06,25,10,43,7.30
2009,06,25,10,44,5.10
2009,06,25,10,45,7.50
2009,06,25,10,46,13.60
2009,06,25,10,47,8.40
2009,06,25,10,48,7.60
2009,06,25,10,49,9.90
2009,06,25,10,50,5.30
2009,06,25,10,51,11.70
2009,06,25,10,52,9.20
2009,06,25,10,53,9.00
2009,06,25,10,54,7.20
2009,06,25,10,55,7.80
2009,06,25,10,56,10.20
2009,06,25,10,57,10.00
2009,06,25,10,58,10.10
2009,06,25,10,59,7.90
2009,06,25,11,00,5.30
2009,06,25,11,01,5.40
2009,06,25,11,02,4.70
2009,06,25,11,03,7.70
2009,06,25,11,04,6.80
2009,06,25,11,05,10.50
2009,06,25,11,06,12.80
2009,06,25,11,07,11.50
2009,06,25,11,08,11.30
2009,06,25,11,09,11.00
2009,06,25,11,10,8.60
2009,06,25,11,11,11.50
2009,06,25,11,12,10.90
2009,06,25,11,13,7.60
2009,06,25,11,14,7.90
2009,06,25,11,15,7.50
2009,06,25,11,16,7.60
2009,06,25,11,17,8.30
2009,06,25,11,18,7.90
2009,06,25,11,19,5.30
2009,06,25,11,20,8.30
2009,06,25,11,21,6.10
2009,06,25,11,22,8.70
2009,06,25,11,23,11.60
2009,06,25,11,24,10.90
2009,06,25,11,25,11.40
2009,06,25,11,26,11.20
2009,06,25,11,27,10.30
2009,06,25,11,28,7.10
2009,06,25,11,29,12.00
2009,06,25,11,30,12.70
2009,06,25,11,31,9.90
2009,06,25,11,32,8.40
2009,06,25,11,33,13.80
2009,06,25,11,34,14.50
2009,06,25,11,35,8.60
2009,06,25,11,36,7.50
2009,06,25,11,37,11.10
2009,06,25,11,38,10.50
2009,06,25,11,39,11.00
2009,06,25,11,40,12.10
2009,06,25,11,41,5.90
2009,06,25,11,42,7.60
2009,06,25,11,43,9.30
2009,06,25,11,44,7.60
2009,06,25,11,45,9.30
2009,06,25,11,46,7.80
2009,06,25,11,47,11.30
2009,06,25,11,48,9.10
2009,06,25,11,49,5.80
2009,06,25,11,50,6.20
2009,06,25,11,51,7.90
2009,06,25,11,52,11.50
2009,06,25,11,53,7.20
2009,06,25,11,54,4.10
2009,06,25,11,55,5.70
2009,06,25,11,56,6.30
2009,06,25,11,57,9.50
2009,06,25,11,58,10.90
2009,06,25,11,59,5.20
2009,06,25,12,00,8.10
2009,06,25,12,01,6.40
2009,06,25,12,02,9.00
2009,06,25,12,03,3.20
2009,06,25,12,04,2.80
2009,06,25,12,05,2.90
2009,06,25,12,06,5.00
2009,06,25,12,07,7.50
2009,06,25,12,08,7.90
2009,06,25,12,09,7.10
2009,06,25,12,10,6.20
2009,06,25,12,11,6.40
2009,06,25,12,12,4.60
2009,06,25,12,13,5.00
2009,06,25,12,14,5.10
2009,06,25,12,15,4.10
2009,06,25,12,16,3.30
2009,06,25,12,17,1.70
2009,06,25,12,18,4.40
2009,06,25,12,19,5.30
2009,06,25,12,20,7.50
2009,06,25,12,21,2.50
2009,06,25,12,22,3.40
2009,06,25,12,23,2.70
2009,06,25,12,24,1.50
2009,06,25,12,25,1.00
2009,06,25,12,26,7.50
2009,06,25,12,27,7.80
2009,06,25,12,28,8.90
2009,06,25,12,29,9.40
2009,06,25,12,30,8.60
2009,06,25,12,31,9.60
2009,06,25,12,32,5.50
2009,06,25,12,33,12.20
2009,06,25,12,34,9.30
2009,06,25,12,35,6.40
2009,06,25,12,36,7.90
2009,06,25,12,37,8.60
2009,06,25,12,38,8.90
2009,06,25,12,39,12.50
2009,06,25,12,40,13.70
2009,06,25,12,41,12.90
2009,06,25,12,42,14.70
2009,06,25,12,43,11.20
2009,06,25,12,44,6.40
2009,06,25,12,45,6.30
2009,06,25,12,46,11.30
2009,06,25,12,47,9.80
2009,06,25,12,48,6.10
2009,06,25,12,49,2.60
2009,06,25,12,50,0.90
2009,06,25,12,51,2.40
2009,06,25,12,52,1.80
2009,06,25,12,53,6.30
2009,06,25,12,54,5.60
2009,06,25,12,55,4.00
2009,06,25,12,56,8.30
2009,06,25,12,57,7.00
2009,06,25,12,58,7.00
2009,06,25,12,59,5.20
2009,06,25,13,00,1.00
2009,06,25,13,01,2.90
2009,06,25,13,02,5.40
2009,06,25,13,03,4.30
2009,06,25,13,04,6.30
2009,06,25,13,05,5.50
2009,06,25,13,06,4.50
2009,06,25,13,07,3.50
2009,06,25,13,08,0.90
2009,06,25,13,09,2.10
2009,06,25,13,10,0.70
2009,06,25,13,11,0.90
2009,06,25,13,12,5.00
2009,06,25,13,13,0.20
2009,06,25,13,14,2.80
2009,06,25,13,15,5.60
2009,06,25,13,16,5.90
2009,06,25,13,17,4.70
2009,06,25,13,18,2.80
2009,06,25,13,19,6.40
2009,06,25,13,20,7.60
2009,06,25,13,21,6.00
2009,06,25,13,22,8.50
2009,06,25,13,23,5.20
2009,06,25,13,24,7.50
2009,06,25,13,25,6.40
2009,06,25,13,26,4.50
2009,06,25,13,27,3.40
2009,06,25,13,28,6.00
2009,06,25,13,29,6.60
2009,06,25,13,30,7.20
2009,06,25,13,31,5.90
2009,06,25,13,32,6.00
2009,06,25,13,33,7.10
2009,06,25,13,34,4.70
2009,06,25,13,35,5.20
2009,06,25,13,36,6.30
2009,06,25,13,37,7.60
2009,06,25,13,38,6.10
2009,06,25,13,39,7.40
2009,06,25,13,40,8.90
2009,06,25,13,41,8.60
2009,06,25,13,42,6.60
2009,06,25,13,43,6.00
2009,06,25,13,44,5.40
2009,06,25,13,45,8.90
2009,06,25,13,46,8.30
2009,06,25,13,47,4.90
2009,06,25,13,48,4.70
2009,06,25,13,49,5.40
2009,06,25,13,50,4.10
2009,06,25,13,51,3.70
2009,06,25,13,52,4.20
2009,06,25,13,53,3.90
2009,06,25,13,54,5.60
2009,06,25,13,55,4.00
2009,06,25,13,56,4.50
2009,06,25,13,57,6.20
2009,06,25,13,58,6.50
2009,06,25,13,59,8.10
2009,06,25,14,00,3.30
2009,06,25,14,01,6.50
2009,06,25,14,02,7.70
2009,06,25,14,03,6.00
2009,06,25,14,04,8.40
2009,06,25,14,05,5.60
2009,06,25,14,06,3.00
2009,06,25,14,07,5.40
2009,06,25,14,08,7.00
2009,06,25,14,09,9.50
2009,06,25,14,10,9.40
2009,06,25,14,11,11.40
2009,06,25,14,12,13.30
2009,06,25,14,13,8.40
2009,06,25,14,14,6.90
2009,06,25,14,15,5.60
2009,06,25,14,16,3.10
2009,06,25,14,17,6.50
2009,06,25,14,18,8.50
2009,06,25,14,19,6.50
2009,06,25,14,20,6.20
2009,06,25,14,21,4.70
2009,06,25,14,22,8.50
2009,06,25,14,23,7.60
2009,06,25,14,24,8.70
2009,06,25,14,25,5.50
2009,06,25,14,26,4.60
2009,06,25,14,27,9.10
2009,06,25,14,28,7.70
2009,06,25,14,29,2.30
2009,06,25,14,30,6.40
2009,06,25,14,31,5.20
2009,06,25,14,32,7.60
2009,06,25,14,33,4.50
2009,06,25,14,34,8.00
2009,06,25,14,35,6.60
2009,06,25,14,36,6.50
2009,06,25,14,37,6.30
2009,06,25,14,38,2.70
2009,06,25,14,39,4.20
2009,06,25,14,40,8.40
2009,06,25,14,41,3.90
2009,06,25,14,42,2.40
2009,06,25,14,43,2.50
2009,06,25,14,44,3.00
2009,06,25,14,45,8.20
2009,06,25,14,46,3.40
2009,06,25,14,47,1.80
2009,06,25,14,48,5.00
2009,06,25,14,49,5.50
2009,06,25,14,50,6.70
2009,06,25,14,51,9.10
2009,06,25,14,52,4.90
2009,06,25,14,53,2.20
2009,06,25,14,54,2.50
2009,06,25,14,55,6.60
2009,06,25,14,56,4.60
2009,06,25,14,57,2.20
2009,06,25,14,58,6.40
2009,06,25,14,59,2.70
2009,06,25,15,00,2.50
2009,06,25,15,01,3.40
2009,06,25,15,02,4.10
2009,06,25,15,03,2.90
2009,06,25,15,04,5.50
2009,06,25,15,05,7.70
2009,06,25,15,06,5.70
2009,06,25,15,07,5.30
2009,06,25,15,08,4.30
2009,06,25,15,09,8.30
2009,06,25,15,10,6.10
2009,06,25,15,11,8.60
2009,06,25,15,12,3.30
2009,06,25,15,13,4.60
2009,06,25,15,14,5.70
2009,06,25,15,15,4.00
2009,06,25,15,16,4.40
2009,06,25,15,17,3.20
2009,06,25,15,18,6.40
2009,06,25,15,19,7.20
2009,06,25,15,20,9.50
2009,06,25,15,21,6.50
2009,06,25,15,22,5.60
2009,06,25,15,23,6.20
2009,06,25,15,24,5.40
2009,06,25,15,25,7.30
2009,06,25,15,26,6.20
2009,06,25,15,27,6.80
2009,06,25,15,28,4.80
2009,06,25,15,29,4.00
2009,06,25,15,30,7.20
2009,06,25,15,31,6.30
2009,06,25,15,32,6.30
2009,06,25,15,33,4.20
2009,06,25,15,34,4.50
2009,06,25,15,35,5.20
2009,06,25,15,36,4.80
2009,06,25,15,37,4.30
2009,06,25,15,38,7.20
2009,06,25,15,39,5.00
2009,06,25,15,40,2.20
2009,06,25,15,41,4.80
2009,06,25,15,42,5.40
2009,06,25,15,43,6.70
2009,06,25,15,44,7.80
2009,06,25,15,45,9.30
2009,06,25,15,46,7.30
2009,06,25,15,47,6.20
2009,06,25,15,48,3.00
2009,06,25,15,49,4.80
2009,06,25,15,50,6.00
2009,06,25,15,51,5.80
2009,06,25,15,52,3.50
2009,06,25,15,53,9.10
2009,06,25,15,54,7.60
2009,06,25,15,55,4.70
2009,06,25,15,56,6.80
2009,06,25,15,57,3.80
2009,06,25,15,58,4.50
2009,06,25,15,59,4.40
2009,06,25,16,00,6.90
2009,06,25,16,01,6.70
2009,06,25,16,02,7.30
2009,06,25,16,03,5.90
2009,06,25,16,04,6.20
2009,06,25,16,05,6.20
2009,06,25,16,06,4.80
2009,06,25,16,07,6.00
2009,06,25,16,08,3.70
2009,06,25,16,09,6.40
2009,06,25,16,10,5.10
2009,06,25,16,11,2.30
2009,06,25,16,12,2.80
2009,06,25,16,13,0.90
2009,06,25,16,14,1.50
2009,06,25,16,15,1.00
2009,06,25,16,16,5.20
2009,06,25,16,17,3.90
2009,06,25,16,18,6.80
2009,06,25,16,19,4.40
2009,06,25,16,20,3.20
2009,06,25,16,21,4.00
2009,06,25,16,22,6.80
2009,06,25,16,23,5.10
2009,06,25,16,24,7.10
2009,06,25,16,25,8.00
2009,06,25,16,26,4.30
2009,06,25,16,27,4.20
2009,06,25,16,28,3.70
2009,06,25,16,29,2.20
2009,06,25,16,30,2.80
2009,06,25,16,31,1.70
2009,06,25,16,32,1.20
2009,06,25,16,33,0.90
2009,06,25,16,34,0.80
2009,06,25,16,35,1.80
2009,06,25,16,36,3.00
2009,06,25,16,37,5.80
2009,06,25,16,38,5.20
2009,06,25,16,39,2.30
2009,06,25,16,40,6.60
2009,06,25,16,41,5.20
2009,06,25,16,42,0.70
2009,06,25,16,43,1.30
2009,06,25,16,44,6.90
2009,06,25,16,45,2.90
2009,06,25,16,46,2.70
2009,06,25,16,47,5.80
2009,06,25,16,48,12.30
2009,06,25,16,49,13.90
2009,06,25,16,50,28.30
2009,06,25,16,51,29.50
2009,06,25,16,52,28.90
2009,06,25,16,53,23.40
2009,06,25,16,54,13.90
2009,06,25,16,55,18.40
2009,06,25,16,56,14.50
2009,06,25,16,57,12.20
2009,06,25,16,58,26.30
2009,06,25,16,59,21.50
2009,06,25,17,00,23.80
2009,06,25,17,01,22.40
2009,06,25,17,02,14.80
2009,06,25,17,03,20.30
2009,06,25,17,04,20.10
2009,06,25,17,05,20.40
2009,06,25,17,06,21.40
2009,06,25,17,07,14.30
2009,06,25,17,08,16.60
2009,06,25,17,09,20.40
2009,06,25,17,10,20.70
2009,06,25,17,11,18.80
2009,06,25,17,12,13.60
2009,06,25,17,13,20.90
2009,06,25,17,14,21.30
2009,06,25,17,15,21.10
2009,06,25,17,16,20.50
2009,06,25,17,17,19.80
2009,06,25,17,18,19.60
2009,06,25,17,19,24.40
2009,06,25,17,20,24.30
2009,06,25,17,21,29.20
2009,06,25,17,22,29.80
2009,06,25,17,23,24.50
2009,06,25,17,24,22.10
2009,06,25,17,25,20.90
2009,06,25,17,26,22.80
2009,06,25,17,27,21.50
2009,06,25,17,28,29.40
2009,06,25,17,29,22.50
2009,06,25,17,30,22.00
2009,06,25,17,31,20.60
2009,06,25,17,32,13.50
2009,06,25,17,33,10.90
2009,06,25,17,34,15.80
2009,06,25,17,35,19.50
2009,06,25,17,36,18.90
2009,06,25,17,37,18.70
2009,06,25,17,38,23.90
2009,06,25,17,39,13.60
2009,06,25,17,40,13.60
2009,06,25,17,41,13.00
2009,06,25,17,42,22.80
2009,06,25,17,43,17.20
2009,06,25,17,44,17.80
2009,06,25,17,45,18.00
2009,06,25,17,46,17.60
2009,06,25,17,47,15.10
2009,06,25,17,48,18.20
2009,06,25,17,49,9.70
2009,06,25,17,50,11.90
2009,06,25,17,51,20.10
2009,06,25,17,52,16.80
2009,06,25,17,53,16.50
2009,06,25,17,54,20.50
2009,06,25,17,55,21.70
2009,06,25,17,56,18.00
2009,06,25,17,57,18.70
2009,06,25,17,58,12.60
2009,06,25,17,59,20.70
2009,06,25,18,00,17.60
2009,06,25,18,01,18.80
2009,06,25,18,02,12.60
2009,06,25,18,03,13.00
2009,06,25,18,04,11.10
2009,06,25,18,05,14.10
2009,06,25,18,06,16.90
2009,06,25,18,07,17.10